Regional Weather Roundup
Issued by NWS Grand Forks, ND

Home | Current Version | Previous Version | Graphics & Text | Print | Product List | Glossary On
Versions: 1 2 3 4 5 6 7 8 9 10 11 12 13 14 15 16 17 18 19 20 21 22 23 24 25 26 27 28 29 30 31 32 33 34 35 36 37 38 39 40 41 42 43 44 45 46 47 48 49 50
000
ASUS43 KFGF 311531
RWRFGF
PRAIRIE TO PINES  WEATHER ROUNDUP
NATIONAL WEATHER SERVICE EASTERN NORTH DAKOTA/GRAND FORKS ND
1000 AM CDT FRI JUL 31 2015

 **SATELLITE DATA USED TO AUGMENT SKY COVER AT AUTOMATED STATIONS**
 *****  WEATHER ACROSS EASTERN NORTH DAKOTA  *****

CITY           SKY/WX    TMP DP  RH WIND       PRES   REMARKS
GRAND FORKS    MOSUNNY   73  54  51 NW14      30.06S
GRAND FRKS AFB SUNNY     73  55  54 NW13G18   30.08R
GRAND FRKS NWS   N/A     70 N/A N/A NW12        N/A
DEVILS LAKE    MOSUNNY   70  52  52 W10       30.11S
FARGO          SUNNY     73  56  54 W12       30.10S
WAHPETON ARPT  SUNNY     73  50  43 NW13G18   30.11F
$$

 ***** WEATHER ACROSS CENTRAL AND WESTERN NORTH DAKOTA  *****

CITY           SKY/WX    TMP DP  RH WIND       PRES   REMARKS
BISMARCK       SUNNY     73  54  51 SW3       30.16F
MINOT          SUNNY     72  50  45 W7        30.13F
JAMESTOWN      SUNNY     72  54  53 NW8       30.14S
MINOT AFB      SUNNY     75  53  45 NW7       30.13S
GARRISON         N/A     71  56  58 SW8       30.14F
WILLISTON      SUNNY     71  53  52 NE8       30.17R
DICKINSON      SUNNY     78  52  40 W9        30.18S
HETTINGER      SUNNY     74  50  42 W7        30.23S
$$

 *****  OTHER AIRPORT OBSERVATIONS IN OUR AREA  *****

CITY           SKY/WX    TMP DP  RH WIND       PRES   REMARKS
WALHALLA       FAIR      72  55  56 MISG      30.05S
GRAFTON AIRPOR FAIR      73  55  53 NW12      30.06S
VALLEY CITY AR FAIR      73  55  53 W9        30.13F
CANDO          FAIR      70  55  60 W10       30.12F
CAVALIER APRT  FAIR      72  55  56 NW9G16    30.05S
GWINNER        FAIR      75  54  46 NW7       30.14S
ROLLA          FAIR      68  52  56 NW10      30.13S
 ***** THE ABOVE OBSERVATIONS ARE NON NWS ARE NOT QUALITY
       CONTROLLED AND MAY MIS-REPORT RAIN FOR SNOW...
$$

  *****  WEATHER ACROSS NORTHERN MINNESOTA  *****

CITY           SKY/WX    TMP DP  RH WIND       PRES   REMARKS
FLAG ISLAND    SUNNY     66  57  72 W16       29.95S
WARROAD        SUNNY     70  59  68 W13G18    30.00S
ROSEAU         SUNNY     70  59  68 NW13      30.01S
HALLOCK        SUNNY     72  55  56 NW12      30.03S
THF RVR FALLS  SUNNY     70  54  56 W10G16    30.05S
BAUDETTE       SUNNY     67  55  65 W12G20    29.98S
WASKISH        SUNNY     70  57  64 W14       30.00F
CROOKSTON      SUNNY     72  55  56 W15       30.06F
$$
  *****  WEATHER ACROSS CENTRAL AND WEST MINNESOTA  *****

CITY           SKY/WX    TMP DP  RH WIND       PRES   REMARKS
FOSSTON        SUNNY     70  54  56 W6        30.07S
BEMIDJI        SUNNY     70  53  54 W16       30.04S
PARK RAPIDS    SUNNY     71  53  52 W17       30.08S
ELBOW LAKE     FAIR      69  57  64 NW10      30.12F
WADENA         SUNNY     72  52  49 W10G17    30.10R
DETROIT LAKES  SUNNY     70  54  56 W12       30.11S
MOORHEAD       SUNNY     72  57  60 NW9       30.10S
FERGUS FALLS   SUNNY     70  55  60 NW10      30.11S
MORRIS MN      SUNNY     75  57  53 NW8       30.11F
STAPLES        SUNNY     72  52  49 W13       30.09S
$$
  *****  WEATHER ELSEWHERE ACROSS MINNESOTA  *****

CITY           SKY/WX    TMP DP  RH WIND       PRES   REMARKS
DULUTH         SUNNY     70  54  56 NW15G22   29.98S
INTRNTL FALLS  MOSUNNY   68  58  70 W10       29.95F
ELY            PTSUNNY   66  52  59 NW10G20   29.95R
CLOQUET        SUNNY     70  50  49 W18G25    30.00S
WHEATON        SUNNY     72  57  60 W8        30.14S
BRAINERD       SUNNY     70  54  56 W9        30.07S
HIBBING        SUNNY     69  53  56 NW15G25   29.99S
ALEXANDRIA     SUNNY     71  55  56 NW8       30.13S
SAINT CLOUD    SUNNY     73  54  51 NW12      30.08F
MINNEAPOLIS    SUNNY     75  53  46 NW13G23   30.08S
$$

  *****  WEATHER ACROSS SOUTH DAKOTA  *****

CITY           SKY/WX    TMP DP  RH WIND       PRES   REMARKS
SIOUX FALLS    MOSUNNY   76  61  59 NE7       30.17S
BROOKINGS      SUNNY     73  55  53 NE5       30.19S
WATERTOWN      SUNNY     74  53  48 W5        30.17S
HURON          SUNNY     76  56  49 NE3       30.16S
SISSETON         N/A     74  56  53 N8        30.12F
ABERDEEN       SUNNY     72  57  59 S3        30.16S
MITCHELL       SUNNY     76  60  57 CALM      30.17S
PIERRE         SUNNY     76  53  44 SE9       30.16F
MOBRIDGE       SUNNY     74  56  53 S3        30.16S
RAPID CITY     SUNNY     72  53  51 N8        30.24R
$$

  *****  SOME WEATHER IN NEARBY STATES *****

CITY           SKY/WX    TMP DP  RH WIND       PRES   REMARKS
GLASGOW MT     SUNNY     73  51  46 SE7       30.16F
GREAT FALLS MT MOSUNNY   71  42  35 SW12      30.21S
CHEYENNE WY    SUNNY     75  53  46 SW3       30.39S
SCOTTSBLUFF NE SUNNY     71  59  65 SE5       30.28S
OMAHA NE       MOSUNNY   83  69  62 SW8       30.13F
DES MOINES IA  MOSUNNY   80  67  64 W5        30.12F
DAVENPORT IA   SUNNY     79  68  69 VRB7      30.09S
CHICAGO IL     MOSUNNY   79  63  57 NW16      30.00F
EAU CLAIRE WI  SUNNY     74  54  49 NW14G23   30.02F
LA CROSSE WI   SUNNY     77  55  46 NW13      30.05R
$$

  *****  SOME NATIONAL WEATHER *****

CITY           SKY/WX    TMP DP  RH WIND       PRES   REMARKS
LA GUARDIA NY  MOSUNNY   83  58  42 NW8       29.87S
RALEIGH NC     MOSUNNY   83  63  50 NE10G17   29.98F
ATLANTA GA     MOSUNNY   85  71  63 NE9       29.99S HX  90
NEW ORLEANS LA PTSUNNY   85  70  60 NE13      29.95F
OKLAHOMA CITY  PTSUNNY   80  73  79 E7        30.17R
ALBUQUERQUE NM PTSUNNY   72  61  68 SE10      30.38R
SALT LAKE CITY MOSUNNY   71  36  27 SE7       30.25S
LOS ANGELES CA CLOUDY    69  65  86 SW5       30.04R
BOISE ID       SUNNY     72  40  31 SE5       30.19R
SEATTLE WA     MOSUNNY   70  51  51 CALM      30.11R
$$

*** WEATHER ACROSS MANITOBA...SASKATCHEWAN AND ONTARIO ***
                ***ONTARIO***

CITY           SKY/WX    TMP DP  RH WIND       PRES   REMARKS
GERALDTON      PTSUNNY   64  55  72 NW13G20   29.73F
THUNDER BAY    PTSUNNY   66  55  68 W14G21    29.84S
SIOUX LOOKOUT  PTSUNNY   64  57  77 NW10G17   29.88R
TORONTO        MOSUNNY   77  57  50 S9        29.85F
BIG TROUT LK   CLOUDY    61  50  67 NW14G28   29.65R
PICKLE LAKE    PTSUNNY   64  52  63 W14G21    29.76F
DRYDEN         CLOUDY    63  57  82 W8        29.90F
KENORA         PTSUNNY   64  57  77 NW12G20   29.94S
$$
                *** MANITOBA***

CITY           SKY/WX    TMP DP  RH WIND       PRES   REMARKS
BRANDON        MOSUNNY   68  57  68 NW9       30.09F
DAUPHIN        SUNNY     68  55  64 W14G22    30.04S
ISLAND LAKE    MOSUNNY   68  54  60 W6        29.81S
PILOT MOUND      N/A     68  55  64 W8          N/A
THE PAS        MOSUNNY   66  55  68 NW13      29.96S
THOMPSON       MOSUNNY   66  54  63 NW6       29.83S
WINNIPEG       MOSUNNY   70  59  68 W15       30.00S
LYNN LAKE      PTSUNNY   64  55  72 NW9       29.90S
CHURCHILL      PTSUNNY   57  50  77 NW17G25   29.67S
GILLAM         PTSUNNY   63  52  67 NW17G25   29.74S
$$
                ***SASKATCHEWAN***

CITY           SKY/WX    TMP DP  RH WIND       PRES   REMARKS
ESTEVAN        SUNNY     70  54  56 N8        30.16
KINDERSLEY     MOSUNNY   68  54  60 CALM      30.18F
LLOYDMINSTER   MOSUNNY   66  50  55 SW8       30.14S
PRINCE ALBERT  MOSUNNY   66  52  59 NW8       30.10
REGINA         MOSUNNY   70  52  52 NW6       30.17
YORKTON        SUNNY     68  54  60 NW8       30.11S
N. BATTLEFORD  MOSUNNY   63  48  59 VRB2      30.17S
LA RONGE       MOSUNNY   66  54  63 W13       30.04F
SASKATOON      MOSUNNY   63  52  67 W3        30.16F
SWIFT CURRENT  SUNNY     68  52  56 S9        30.18S
$$
NOTE: THESE ARE AUTOMATED STATIONS WITH LIMITED QUALITY CONTROL
      "FAIR" INDICATES FEW OR NO CLOUDS BELOW 12,000 FEET WITH NO
      SIGNIFICANT WEATHER AND/OR OBSTRUCTIONS TO VISIBILITY.
      SKY/WX - SKY CONDITION AND SIGNIFICANT WEATHER.
      TMP - AIR TEMPERATURE.    DP   - DEWPOINT TEMPERATURE.
      RH  - RELATIVE HUMIDITY.  PRES - PRESSURE.
      HX  - HEAT INDEX.         WCI  - WIND CHILL INDEX.
$


USA.gov is the U.S. government's official web portal to all federal, state and local government web resources and services.